TimeCDT,TemperatureF,Dew PointF,Humidity,Sea Level PressureIn,VisibilityMPH,Wind Direction,Wind SpeedMPH,Gust SpeedMPH,PrecipitationIn,Events,Conditions,WindDirDegrees,DateUTC
12:52 AM,53.1,46.0,77,30.22,10.0,NE,12.7,20.7,N/A,,Clear,40,2013-05-24 05:52:00
1:52 AM,51.1,41.0,68,30.25,10.0,NE,5.8,-,N/A,,Clear,50,2013-05-24 06:52:00
2:52 AM,48.0,41.0,77,30.26,10.0,ENE,3.5,-,N/A,,Clear,70,2013-05-24 07:52:00
3:52 AM,46.0,39.9,79,30.27,10.0,NE,5.8,-,N/A,,Clear,50,2013-05-24 08:52:00
4:52 AM,45.0,37.9,76,30.29,10.0,NE,6.9,-,N/A,,Clear,40,2013-05-24 09:52:00
5:52 AM,44.1,39.9,85,30.33,10.0,North,4.6,-,N/A,,Clear,360,2013-05-24 10:52:00
6:52 AM,46.9,39.0,74,30.34,10.0,NNE,8.1,-,N/A,,Clear,20,2013-05-24 11:52:00
7:52 AM,50.0,39.0,66,30.37,10.0,NE,4.6,-,N/A,,Clear,40,2013-05-24 12:52:00
8:52 AM,53.1,39.9,61,30.39,10.0,NE,5.8,-,N/A,,Clear,50,2013-05-24 13:52:00
9:52 AM,55.9,41.0,57,30.39,10.0,NW,8.1,-,N/A,,Clear,320,2013-05-24 14:52:00
10:52 AM,59.0,42.1,53,30.39,10.0,Variable,5.8,-,N/A,,Clear,0,2013-05-24 15:52:00
11:52 AM,62.1,42.1,48,30.39,10.0,NNE,6.9,-,N/A,,Clear,30,2013-05-24 16:52:00
12:52 PM,64.0,39.9,41,30.38,10.0,Variable,4.6,-,N/A,,Clear,0,2013-05-24 17:52:00
1:52 PM,64.9,41.0,42,30.38,10.0,Calm,Calm,-,N/A,,Clear,0,2013-05-24 18:52:00
2:52 PM,66.9,41.0,39,30.36,10.0,East,5.8,-,N/A,,Clear,90,2013-05-24 19:52:00
3:52 PM,68.0,41.0,37,30.33,10.0,ENE,8.1,-,N/A,,Clear,60,2013-05-24 20:52:00
4:52 PM,69.1,41.0,36,30.31,10.0,ENE,3.5,-,N/A,,Clear,60,2013-05-24 21:52:00
5:52 PM,69.1,42.1,38,30.30,10.0,Calm,Calm,-,N/A,,Clear,0,2013-05-24 22:52:00
6:52 PM,66.9,45.0,45,30.28,10.0,Calm,Calm,-,N/A,,Clear,0,2013-05-24 23:52:00
7:52 PM,62.1,48.0,60,30.27,10.0,ENE,3.5,-,N/A,,Clear,60,2013-05-25 00:52:00
8:52 PM,55.9,46.0,69,30.28,10.0,Calm,Calm,-,N/A,,Clear,0,2013-05-25 01:52:00
9:52 PM,53.1,48.0,83,30.30,10.0,Calm,Calm,-,N/A,,Clear,0,2013-05-25 02:52:00
10:52 PM,48.9,46.0,90,30.33,10.0,Calm,Calm,-,N/A,,Clear,0,2013-05-25 03:52:00
11:52 PM,48.0,46.0,93,30.32,10.0,Calm,Calm,-,N/A,,Clear,0,2013-05-25 04:52:00